GFSFLT2_925_thetae_198.txt.gz
Theta_e
301 300 300 300 300 300 300 301 302 302 302 303 302 304 304 304 304 305 305 305 305 303 302 301 304 305 308
299 299 299 299 300 300 300 299 297 299 299 298 301 303 303 302 302 302 304 304 303 303 301 299 300 302 303
298 298 299 299 299 298 296 296 297 298 298 300 299 300 301 301 300 300 301 303 303 301 300 297 295 297 302
297 297 297 296 296 296 296 296 297 296 297 297 297 298 298 299 300 301 301 301 302 301 300 297 295 296 301
295 296 296 295 296 296 296 295 296 297 297 297 297 298 299 299 299 299 300 301 300 300 301 298 296 295 300
295 295 295 295 295 295 295 295 294 295 296 296 296 296 296 296 297 298 299 298 299 300 300 298 297 294 298
294 294 294 294 294 294 294 294 293 294 294 295 295 295 295 295 296 297 298 299 296 299 300 299 297 295 295
293 293 293 293 294 293 293 293 293 293 293 294 293 294 294 294 295 296 296 297 296 298 301 299 296 295 294
291 291 291 292 292 292 293 290 291 291 291 293 293 293 293 294 295 295 296 296 295 296 298 298 296 296 294
291 290 289 290 292 292 292 291 291 291 291 291 291 291 293 295 293 293 294 294 294 293 296 297 297 296 294
291 290 290 291 292 292 292 291 291 290 290 291 290 290 291 292 293 294 290 292 292 292 293 296 297 296 294
290 290 289 290 291 291 290 288 288 288 288 291 290 290 290 290 291 292 292 291 292 292 294 294 297 296 295
289 289 288 289 289 287 286 288 287 287 288 289 290 289 289 289 290 290 291 292 291 292 293 295 295 295 294
288 287 288 288 288 287 286 286 287 287 286 288 289 289 288 288 289 289 290 291 291 290 292 295 294 295 293
287 286 286 286 285 286 286 286 287 287 286 286 288 289 288 288 287 288 289 290 290 291 290 292 292 293 293
287 286 285 285 285 286 286 286 286 286 286 286 288 288 289 289 289 288 288 289 289 290 289 288 289 291 291
287 286 285 285 285 286 286 286 286 286 286 287 287 288 289 289 289 290 289 289 289 289 289 288 288 289 288

GFSFLT2_925_thetae_201.txt.gz
Theta_e
297 297 297 298 298 298 299 299 298 297 297 298 299 299 300 302 303 303 302 303 305 306 307 306 304 303 305
294 294 295 296 298 298 297 296 296 296 296 298 298 299 299 299 299 302 301 301 301 304 305 305 303 302 302
294 295 295 295 296 296 295 295 295 295 296 296 297 298 296 298 299 299 300 300 300 301 303 304 303 300 299
294 294 294 293 294 295 295 295 294 293 293 294 294 296 297 296 296 298 299 300 300 300 302 303 302 299 296
293 293 293 293 293 294 294 294 294 293 293 294 293 293 294 294 296 296 296 297 298 298 300 302 302 299 296
292 292 292 292 293 293 293 293 292 293 293 292 293 293 293 294 294 295 295 296 297 298 299 300 301 299 296
291 291 291 292 292 292 293 292 292 292 291 292 291 292 292 292 293 294 294 295 296 297 298 297 301 300 297
290 289 290 292 291 291 292 292 292 291 291 291 291 291 292 291 291 293 294 295 296 296 297 297 300 299 297
289 290 291 291 290 291 291 291 290 290 290 291 291 291 289 289 292 294 293 293 296 297 296 296 299 299 297
290 290 290 289 289 290 291 290 291 290 291 290 290 289 289 290 291 291 292 292 292 292 293 294 297 298 296
290 290 289 289 288 289 291 290 289 288 288 288 288 288 289 289 290 290 291 291 292 291 292 293 294 298 297
290 289 289 288 287 288 288 286 286 287 287 286 287 288 289 289 289 290 289 290 291 291 291 292 292 295 296
289 288 287 287 287 287 286 286 286 286 286 286 286 287 288 288 288 289 289 289 289 290 291 292 293 293 295
288 288 287 286 285 285 285 286 286 286 285 285 286 286 288 288 288 288 288 289 289 289 291 291 293 292 292
288 287 287 286 285 284 284 285 286 286 285 285 286 286 287 288 288 288 287 288 288 289 290 291 292 292 292
288 287 287 286 285 285 285 285 285 285 285 285 286 286 286 287 288 288 288 288 289 288 289 289 290 291 291
286 287 287 286 286 284 284 285 285 285 286 286 286 286 285 286 288 289 288 288 288 288 288 288 288 289 290

GFSFLT2_925_thetae_207.txt.gz
Theta_e
292 291 290 291 291 291 290 289 289 290 293 295 296 295 295 296 297 298 298 299 299 299 300 301 302 303 303
290 290 290 291 291 291 288 288 290 290 291 294 294 294 295 295 295 295 294 295 296 296 297 298 300 301 302
289 290 290 290 290 289 288 288 290 290 291 292 292 293 294 293 293 294 294 294 294 295 296 297 298 299 300
290 290 291 289 289 289 288 288 290 289 288 288 290 291 290 291 291 291 291 293 293 294 295 295 297 297 299
289 290 289 289 289 289 288 289 289 289 289 289 290 289 288 290 290 290 292 292 292 293 294 295 296 296 297
289 289 289 289 289 289 289 289 289 288 289 289 289 289 289 290 289 291 290 291 292 293 294 294 294 295 297
289 288 289 289 290 289 289 289 289 289 288 288 288 288 289 289 288 289 289 291 292 292 292 292 293 294 295
288 289 289 290 290 290 289 290 288 287 287 288 288 289 288 286 286 287 288 289 290 291 291 292 292 292 293
288 289 289 290 290 290 289 288 286 287 287 288 288 287 286 285 286 286 287 289 289 290 291 291 292 291 292
288 289 289 289 289 289 289 287 286 286 288 287 286 286 286 285 285 285 285 286 288 288 289 290 290 290 291
288 288 288 287 286 288 288 287 286 287 286 285 286 285 285 285 285 285 285 286 287 288 288 288 289 289 290
288 287 287 286 286 288 287 286 285 284 284 284 284 285 284 284 284 284 284 286 287 287 288 288 288 289 290
287 286 286 286 286 287 287 286 285 284 284 284 285 285 284 283 284 284 285 286 287 288 287 287 288 289 289
286 286 286 286 286 287 287 286 285 285 284 283 284 284 284 284 285 285 284 286 286 287 287 287 288 288 290
285 285 285 285 285 286 286 286 284 284 283 283 284 284 284 285 284 284 284 285 286 286 287 287 287 288 288
285 285 285 285 285 286 286 285 284 284 283 283 283 283 283 284 284 285 285 285 285 287 287 287 287 287 288
283 284 284 284 285 285 285 285 285 283 283 283 283 281 279 281 284 284 284 284 285 286 286 287 286 287 287

GFSFLT2_925_thetae_210.txt.gz
Theta_e
288 289 290 289 289 289 287 287 286 286 287 292 293 294 294 295 295 295 294 294 295 295 296 296 297 298 298
289 289 289 289 289 288 288 287 286 286 289 291 291 292 293 294 295 294 293 293 294 294 295 295 295 297 298
288 288 289 288 289 288 288 288 287 286 288 287 289 291 292 293 291 292 292 292 293 294 293 294 294 295 296
287 288 288 288 289 288 289 289 287 286 288 288 288 287 288 289 290 290 290 292 292 292 292 293 293 295 295
287 287 288 288 288 288 289 289 288 288 288 288 287 287 287 287 288 289 290 290 290 291 292 292 294 294 293
287 287 289 288 288 288 289 288 288 288 288 288 287 287 287 288 289 289 288 289 289 290 291 292 292 292 292
288 288 287 288 288 289 289 289 288 288 288 287 287 287 287 287 286 287 287 288 289 289 290 290 291 292 291
288 287 288 288 289 290 289 289 289 288 287 286 286 287 287 286 286 286 286 286 286 288 288 290 290 290 291
288 288 288 289 289 289 289 287 288 287 286 286 287 286 285 285 285 285 285 285 285 286 288 289 289 290 290
289 289 289 288 288 287 286 287 287 286 286 286 286 285 285 285 285 284 284 284 285 285 287 288 289 289 289
288 288 288 287 287 286 286 286 287 286 286 285 284 284 284 284 284 284 284 284 284 285 286 287 288 289 289
286 286 286 286 286 286 286 286 287 286 286 284 283 283 283 284 283 284 284 284 284 285 286 286 287 287 288
285 285 285 285 285 285 286 286 286 286 286 284 284 283 283 282 282 283 284 284 284 285 285 286 286 287 287
284 284 284 284 284 284 284 285 286 286 286 285 283 283 283 283 283 282 284 283 284 284 285 286 287 287 287
283 283 284 284 284 284 285 285 284 285 285 285 283 283 283 283 281 283 283 284 284 284 285 286 286 286 287
283 282 282 283 283 284 284 285 284 284 284 284 283 283 282 282 282 283 284 284 284 284 284 285 286 286 287
282 282 282 282 283 283 283 283 283 283 284 284 283 281 274 278 282 283 284 283 284 283 284 284 285 286 287